Montpelier, VT

3:24 PM EDT on August 20, 2017 (GMT -0400)
Knapp State

Weather History for KMPV - January, 2013

Change the Weather History Date:

Wednesday, January 2, 2013

  Actual Average Record
Temperature  
Mean Temperature 0 °F 18 °F  
Max Temperature 12 °F 27 °F 47 °F (1979)
Min Temperature -13 °F 8 °F -25 °F (1968)
Degree Days  
Heating Degree Days 65 47  
Month to date heating degree days 111 94  
Since 1 July heating degree days 3074 3242  
Cooling Degree Days 0 0  
Month to date cooling degree days 0  
Year to date cooling degree days 0  
Moisture  
Dew Point 2 °F    
Average Humidity 80    
Maximum Humidity 95    
Minimum Humidity 65    
Precipitation  
Precipitation 0.01 in 0.07 in 0.84 in (1979)
Month to date precipitation 0.01 0.14  
Year to date precipitation 0.01 0.14  
Sea Level Pressure  
Sea Level Pressure 29.98 in    
Wind  
Wind Speed 7 mph (NW)    
Max Wind Speed 21 mph    
Max Gust Speed 26 mph    
Visibility 5 miles    
Events Snow    
T = Trace of Precipitation, MM = Missing Value Source: NWS Daily Summary

Daily Weather History Graph

Daily Weather History Graph

Search for Another Location

Airport or City:

Trip Planner

Search our weather history database for the weather conditions in past years. The results will help you decide how hot, cold, wet, or windy it might be!

Date:

Astronomy

Jan. 02, 2013 Rise Set
Actual Time 7:25 AM EST 4:23 PM EST
Civil Twilight 6:52 AM EST 4:56 PM EST
Nautical Twilight 6:16 AM EST 5:32 PM EST
Astronomical Twilight 5:41 AM EST 6:07 PM EST
Moon 10:06 PM EST (1/2) 9:54 AM EST (1/2)
Length of Visible Light 10h 03m
Length of Day
8h 57m
Waning Gibbous, 75% of the Moon is Illuminated
Jan 2
Waning Gibbous
Jan 4
Last Quarter
Jan 11
New
Jan 18
First Quarter
Jan 26
Full

Hourly Weather History & Observations

Time (EST) Temp. Windchill Dew Point Humidity Pressure Visibility Wind Dir Wind Speed Gust Speed Precip Events Conditions
12:51 AM 6.1 °F - 1.0 °F 80% 29.96 in 10.0 mi Calm Calm - N/A   Overcast
1:51 AM 5.0 °F -2.1 °F 1.0 °F 84% 29.95 in 10.0 mi SE 3.5 mph - N/A   Mostly Cloudy
2:51 AM 1.9 °F -7.6 °F -0.9 °F 88% 29.95 in 10.0 mi South 4.6 mph - N/A   Scattered Clouds
3:51 AM 3.9 °F -3.4 °F -0.0 °F 84% 29.94 in 7.0 mi SSE 3.5 mph - N/A   Overcast
4:51 AM 5.0 °F -2.1 °F 1.9 °F 87% 29.93 in 4.0 mi South 3.5 mph - 0.00 in Snow Light Snow
5:11 AM 6.8 °F - 1.4 °F 79% 29.83 in 2.5 mi Calm Calm - 0.00 in Snow Light Snow
5:36 AM 8.6 °F - 5.0 °F 85% 29.83 in 3.0 mi Calm Calm - 0.00 in Snow Light Snow
5:51 AM 7.0 °F - 3.9 °F 87% 29.91 in 3.0 mi Calm Calm - 0.00 in Snow Light Snow
6:22 AM 8.6 °F - 6.8 °F 92% 29.81 in 2.5 mi Calm Calm - 0.00 in Snow Light Snow
6:51 AM 8.1 °F - 6.1 °F 92% 29.90 in 2.0 mi Calm Calm - 0.00 in Snow Light Snow
7:36 AM 10.4 °F - 6.8 °F 85% 29.82 in 1.5 mi Calm Calm - 0.00 in Snow Light Snow
7:42 AM 8.6 °F - 6.8 °F 92% 29.82 in 1.0 mi Calm Calm - 0.00 in Snow Light Snow
7:51 AM 9.0 °F 2.4 °F 7.0 °F 92% 29.91 in 1.0 mi SSW 3.5 mph - 0.00 in Snow Light Snow
7:58 AM 8.6 °F - 6.8 °F 92% 29.83 in 1.2 mi Calm Calm - 0.00 in Snow Light Snow
8:19 AM 8.6 °F - 6.8 °F 92% 29.84 in 1.0 mi Calm Calm - 0.00 in Snow Light Snow
8:29 AM 8.6 °F - 6.8 °F 92% 29.84 in 1.2 mi Calm Calm - 0.00 in Snow Light Snow
8:44 AM 8.6 °F - 6.8 °F 92% 29.85 in 1.0 mi Calm Calm - 0.00 in Snow Light Snow
8:51 AM 9.0 °F - 7.0 °F 92% 29.94 in 0.8 mi Calm Calm - 0.00 in Snow Light Snow
9:31 AM 10.4 °F - 8.6 °F 92% 29.88 in 1.2 mi Calm Calm - 0.01 in Snow Light Snow
9:51 AM 12.0 °F -0.4 °F 9.0 °F 88% 29.97 in 1.2 mi NNW 9.2 mph - 0.01 in Snow Light Snow
10:15 AM 12.2 °F -1.0 °F 8.6 °F 85% 29.90 in 2.0 mi NNW 10.4 mph 18.4 mph 0.00 in Snow Light Snow
10:29 AM 12.2 °F -0.2 °F 8.6 °F 85% 29.90 in 1.8 mi NNW 9.2 mph 23.0 mph 0.00 in Snow Light Snow
10:51 AM 12.0 °F -6.0 °F 7.0 °F 80% 29.99 in 1.0 mi NNW 19.6 mph 25.3 mph 0.00 in Snow Light Snow
10:59 AM 12.2 °F -2.5 °F 6.8 °F 79% 29.91 in 1.2 mi NW 12.7 mph 25.3 mph 0.00 in Snow Light Snow
11:05 AM 12.2 °F -2.5 °F 6.8 °F 79% 29.91 in 2.0 mi North 12.7 mph 20.7 mph 0.00 in Snow Light Snow
11:26 AM 10.4 °F -4.1 °F 5.0 °F 79% 29.92 in 5.0 mi NW 11.5 mph 19.6 mph 0.00 in   Haze
11:51 AM 10.9 °F -0.8 °F 5.0 °F 77% 30.00 in 6.0 mi NW 8.1 mph - 0.00 in   Haze
12:13 PM 10.4 °F -3.3 °F 6.8 °F 85% 29.92 in 2.0 mi NW 10.4 mph - 0.00 in Snow Light Snow
12:31 PM 10.4 °F -5.4 °F 3.2 °F 73% 29.92 in 5.0 mi WNW 13.8 mph 25.3 mph 0.00 in Snow Blowing Snow
12:47 PM 10.4 °F -6.0 °F 1.4 °F 67% 29.92 in 7.0 mi WNW 15.0 mph 23.0 mph 0.00 in   Scattered Clouds
12:51 PM 10.9 °F -4.7 °F 1.9 °F 67% 30.00 in 7.0 mi WNW 13.8 mph 23.0 mph 0.00 in   Scattered Clouds
1:51 PM 10.0 °F -4.5 °F 1.0 °F 67% 30.03 in 10.0 mi WNW 11.5 mph - 0.00 in   Partly Cloudy
2:51 PM 8.1 °F -9.6 °F -0.9 °F 67% 30.07 in 8.0 mi WNW 16.1 mph 25.3 mph N/A   Clear
3:51 PM 5.0 °F -10.0 °F -4.0 °F 66% 30.11 in 10.0 mi NW 10.4 mph 16.1 mph N/A   Clear
4:51 PM 1.9 °F -11.8 °F -6.0 °F 69% 30.15 in 10.0 mi NW 8.1 mph - N/A   Clear
5:51 PM -0.0 °F -16.3 °F -9.0 °F 66% 30.19 in 10.0 mi NW 10.4 mph - N/A   Clear
6:51 PM -2.9 °F -13.3 °F -8.0 °F 79% 30.21 in 10.0 mi North 4.6 mph - N/A   Partly Cloudy
7:51 PM -4.0 °F -12.4 °F -9.9 °F 76% 30.22 in 10.0 mi NNW 3.5 mph - N/A   Clear
8:51 PM -5.1 °F -20.4 °F -9.9 °F 80% 30.22 in 10.0 mi NNW 8.1 mph - N/A   Clear
9:51 PM -6.0 °F - -11.0 °F 79% 30.24 in 10.0 mi Calm Calm - N/A   Clear
10:51 PM -9.0 °F - -11.9 °F 87% 30.26 in 10.0 mi Calm Calm - N/A   Clear
11:51 PM -11.0 °F - -15.0 °F 83% 30.27 in 10.0 mi Calm Calm - N/A   Clear